Preview of NWS' New Version of Forecast
This preview is not operational and should not be used for support decisions.

Regional Weather Roundup (RWR)

Issued by Philadelphia/Mt Holly (PHI)

                            
000
ASUS41 KPHI 231912
RWRPHI

REGIONAL WEATHER ROUNDUP
NATIONAL WEATHER SERVICE MOUNT HOLLY NJ
300 PM EDT SAT MAR 23 2019

NOTE:  "FAIR" INDICATES FEW OR NO CLOUDS BELOW 12,000 FEET WITH NO
SIGNIFICANT WEATHER AND/OR OBSTRUCTIONS TO VISIBILITY.

 * = STATION DOES NOT REPORT PRECIPITATION (E.G. RAIN, SNOW, ETC.) 
        OR FOG.

NJZ015>026-232000-
SOUTHERN NEW JERSEY
  
CITY           SKY/WX    TMP DP  RH WIND       PRES   REMARKS
POMONA         FAIR      50  19  29 W28G39    29.97S                  
WILDWOOD*      FAIR      49  24  37 W14G26    30.04R                  
MILLVILLE      FAIR      50  16  25 W29G37    30.01F                  
MOUNT HOLLY    FAIR      49  14  24 W17G32    30.00R                  
TRENTON        FAIR      48  15  26 W15G28    29.98R                  

$$
NJZ001>014-232000-
NORTHERN NEW JERSEY
  
CITY           SKY/WX    TMP DP  RH WIND       PRES   REMARKS
SUSSEX         FAIR      43  14  31 NW21G31   29.96R                  
ANDOVER*         N/A     43  14  31 N13G26    29.96R                  
MORRISTOWN     MOSUNNY   45  23  42 NW20G32   29.95R                  
NEWARK         FAIR      49  19  30 NW21G35   29.93R                  
TETERBORO      FAIR      48  23  37 NW22G37   29.91R                  
CALDWELL       FAIR      46  18  32 NW20G30   29.93S                  
SOMERVILLE     FAIR      48  16  27 NW17G30   29.95S                  
ALLAIRE*       FAIR      49  20  31 W25G35    29.93R                  
TOMS RIVER*    FAIR      48  17  29 NW24G41   29.95S                  

$$
PAZ043-044-047-054-055-060>062-066>071-232000-
EASTERN PENNSYLVANIA
  
CITY           SKY/WX    TMP DP  RH WIND       PRES   REMARKS
PHILADELPHIA   FAIR      50  12  21 W25G36    30.03R                  
NORTH PHILA    FAIR      50  13  22 W21G33    30.01S                  
BLUE BELL*     FAIR      46  18  31 NW8G18    30.02S                  
DOYLESTOWN     FAIR      49  12  22 NW16G30   29.98S                  
QUAKERTOWN*    SUNNY     46  12  25 W13G22    30.00S                  
PERKASIE*      FAIR      46  10  23 NW13G29   30.00S                  
POTTSTOWN      FAIR      48  19  31 W16G23    30.03S                  
LANCASTER      FAIR      50  18  28 W24G30    30.05F                  
COATESVILLE    FAIR      46  18  31 NW15G25   30.05S                  
READING        FAIR     N/A N/A N/A NW18G35   30.03S                  
ALLENTOWN      FAIR      50  11  20 NW16G28   30.00S                  
MOUNT POCONO   FAIR      34  11  38 W23G37    29.94R WCI  22          
HAZLETON       FAIR      43   9  24 W12G24    30.01S                  
LEHIGHTON      FAIR      46  10  23 NW9G17    30.02S                  
WILKES BARRE   FAIR      42  14  32 NW21G28   30.02R                  

$$
DEZALL-MDZ008-012-015-019-020-232000-
DELAWARE AND EASTERN MARYLAND
  
CITY           SKY/WX    TMP DP  RH WIND       PRES   REMARKS
WILMINGTON     FAIR      50  15  24 NW22G36   30.05S                  
GEORGETOWN     FAIR      51  19  28 W21G31    30.06S                  
EASTON         SUNNY     50  19  29 W15G24    30.14S                  
PATUXENT       FAIR      53  21  28 W18G30    30.12S                  
OCEAN CITY     FAIR      50  26  39 NW17G28   30.06S                  
WALLOPS ISLAND FAIR      52  20  28 NW17G29   30.09S                  
CAMBRIDGE      SUNNY     48  19  32 NW21G29   30.11S                  
SALISBURY      FAIR      49  24  37 NW18G29   30.08F                  

$$
PAZ001-021-NYZ056-072-MDZ011-DCZ001-232000-
OTHER NEARBY LOCATIONS
  
CITY           SKY/WX    TMP DP  RH WIND       PRES   REMARKS
HARRISBURG     FAIR      49  15  25 NW21G30   30.08R                  
STATE COLLEGE  SUNNY     43  10  26 NW16G22   30.11S                  
WILLIAMSPORT   FAIR      49   6  17 W18G30    30.05F                  
BINGHAMTON     FAIR      31  13  47 NW18G28   30.00R WCI  19          
NEW YORK CITY  FAIR      47  19  33 W9G17     29.94R                  
BALTIMORE      FAIR      51  18  27 NW18G25   30.11S                  
WASHINGTON DC  FAIR      51  18  27 W17G25    30.15F                  

$$